This demonstration page uses our WeatherBlox Daily Observations layout. Learn more.

Left ArrowRight Arrow

47.50024, -111.30081

Hourly Observations for July 10, 2020

Temp ( °F °C ) Dew Point ( °F °C ) Humidity (%) Winds ( mph kmh ) Pressure ( in mb ) Visibility ( mi km ) Precip ( " mm )
12:53 am 00:53 Clear 55 12.8 46 7.8 72 72 W 6 9 29.88 1012 10 16 0.00 0.00
1:53 am 01:53 Clear 54 12.2 47 8.3 77 77 SW 9 15 29.86 1011 10 16 0.00 0.00
2:53 am 02:53 Clear 54 12.2 46 7.8 75 75 WSW 12 19 29.86 1011 10 16 0.00 0.00
3:53 am 03:53 Clear 50 10 44 6.7 80 80 WNW 8 13 29.86 1011 10 16 0.00 0.00
4:53 am 04:53 Clear 49 9.4 43 6.1 80 80 SW 8 13 29.89 1012 10 16 0.00 0.00
5:53 am 05:53 Sunny 51 10.6 43 6.1 74 74 SSW 8 13 29.91 1013 10 16 0.00 0.00
6:53 am 06:53 Cloudy 56 13.3 44 6.7 65 65 SW 13 20 29.96 1015 10 16 0.00 0.00
7:49 am 07:49 Cloudy with Rain 54 12 48 9 82 82 SW 22 35 30.04 1017 3 4 0.05 1.27
7:53 am 07:53 Cloudy with Light Rain 53 11.7 48 8.9 83 83 SW 18 30 30.05 1018 3 4 0.06 1.52
8:08 am 08:08 Cloudy with Rain 53 11.7 49 9.4 86 86 SSW 16 26 30.04 1017 5 8 0.02 0.51
8:53 am 08:53 Cloudy with Light Rain 53 11.7 49 9.4 86 86 S 10 17 30.04 1017 7 11 0.11 2.79
9:53 am 09:53 Mostly Cloudy 56 13.3 49 9.4 77 77 SSW 13 20 30.04 1017 10 16 0.03 0.76
10:53 am 10:53 Sunny 64 17.8 49 9.4 58 58 SW 18 30 30.03 1017 10 16 0.00 0.00
11:53 am 11:53 Sunny 69 20.6 46 7.8 44 44 WSW 20 31 30.02 1017 10 16 0.00 0.00
12:53 pm 12:53 Partly Cloudy 70 21.1 48 8.9 46 46 SW 22 35 30.04 1017 10 16 0.00 0.00
1:53 pm 13:53 Cloudy 69 20.6 47 8.3 45 45 SW 14 22 30.06 1018 10 16 0.00 0.00
2:53 pm 14:53 Mostly Cloudy 71 21.7 47 8.3 42 42 SW 14 22 30.06 1018 10 16 0.00 0.00
3:53 pm 15:53 Mostly Sunny 75 23.9 44 6.7 33 33 W 14 22 30.06 1018 10 16 0.00 0.00
4:53 pm 16:53 Sunny 76 24.4 42 5.6 30 30 W 16 26 30.07 1018 10 16 0.00 0.00
5:53 pm 17:53 Mostly Sunny 76 24.4 42 5.6 30 30 WSW 16 26 30.08 1019 10 16 0.00 0.00
6:53 pm 18:53 Sunny 75 23.9 40 4.4 28 28 W 17 28 30.07 1018 10 16 0.00 0.00
7:53 pm 19:53 Sunny 72 22.2 44 6.7 37 37 W 10 17 30.09 1019 10 16 0.00 0.00
8:53 pm 20:53 Sunny 67 19.4 44 6.7 44 44 W 7 11 30.12 1020 10 16 0.00 0.00
9:53 pm 21:53 Clear 57 13.9 44 6.7 62 62 W 9 15 30.14 1021 10 16 0.00 0.00
10:53 pm 22:53 Clear 54 12.2 43 6.1 67 67 SW 8 13 30.14 1021 10 16 0.00 0.00
11:53 pm 23:53 Clear 54 12.2 43 6.1 67 67 SSW 8 13 30.14 1021 10 16 0.00 0.00

Powered by AerisWeather